Theta_e
357 358 358 358 358 358 357 358 358 357 357 356 355 356 355 358 359 358 355 353 353 351 346 343 345 341 337 337 337 336 336 335 336 335 335 337 339 339 336 337 337 337 334
357 358 358 358 358 358 359 358 358 358 358 357 357 357 355 356 358 358 357 353 353 351 349 345 344 343 342 339 337 337 336 336 335 337 336 336 339 339 339 340 337 334 334
356 357 358 359 358 359 359 358 358 358 358 358 358 359 357 355 357 357 357 356 353 352 350 348 345 343 342 338 338 336 337 338 338 336 336 338 336 337 339 339 337 336 336
353 355 357 359 359 359 359 359 359 359 359 359 359 360 358 356 354 355 356 356 355 353 351 349 347 343 342 342 340 339 337 337 338 338 336 335 337 337 337 335 337 337 335
354 355 357 358 359 359 359 359 359 360 360 360 359 359 358 357 354 355 355 355 356 355 353 350 348 346 342 342 340 340 339 339 336 338 337 335 335 337 337 335 336 335 335
354 356 356 359 360 360 360 360 360 360 360 360 360 360 359 357 354 351 355 355 355 356 355 352 349 346 345 342 340 338 340 342 340 336 336 336 337 337 337 337 334 335 335
354 356 357 359 360 361 360 360 361 361 361 361 360 360 360 359 355 352 351 354 354 356 356 354 352 349 347 346 341 337 336 338 338 340 340 338 337 339 339 339 335 335 335
356 356 358 359 360 361 361 361 361 361 361 362 361 360 360 360 358 354 351 351 354 356 356 355 354 352 350 348 347 342 339 338 337 338 340 341 341 341 340 338 337 336 335
357 357 358 359 360 360 362 362 361 360 360 360 361 360 360 360 358 356 353 351 352 355 356 355 355 354 352 348 348 348 344 340 339 337 338 339 341 340 338 337 336 335 334
357 358 357 358 360 361 361 360 360 359 359 359 359 359 360 360 359 358 355 352 352 353 355 356 355 354 353 351 347 347 343 341 341 340 339 339 340 338 333 335 334 334 333
354 355 356 358 360 359 360 360 360 359 359 358 358 357 357 358 358 357 357 353 352 353 354 356 355 352 352 351 348 345 344 344 343 342 339 338 338 337 333 332 334 332 327
353 354 356 359 358 358 359 360 360 360 360 361 360 358 357 356 356 354 353 355 352 353 355 354 354 353 350 349 346 344 344 344 343 340 339 338 336 334 332 332 329 325 322
354 355 358 359 360 357 360 361 360 360 359 359 359 358 356 357 355 348 337 338 354 351 353 354 353 350 349 345 341 341 342 342 341 338 337 336 334 332 330 326 325 325 323
356 357 359 361 361 360 360 361 360 359 359 358 357 357 353 351 349 350 348 351 354 353 343 349 349 346 343 336 335 339 340 339 339 337 336 335 334 330 325 324 321 321 320
358 359 360 360 360 361 361 357 359 358 355 356 356 356 357 357 357 357 354 352 350 342 338 341 336 334 336 338 338 339 338 337 336 336 336 334 330 327 324 322 321 321 320
357 357 357 358 360 360 357 346 350 353 358 359 360 361 362 360 360 360 357 355 352 342 338 335 336 335 334 334 334 334 335 335 335 335 334 331 327 324 323 323 321 320 320
355 353 352 354 355 355 354 347 344 341 346 349 348 350 351 353 356 353 344 340 335 334 333 332 333 334 335 333 333 334 334 334 334 333 331 328 326 324 323 323 321 320 319
350 349 352 352 353 351 350 348 345 343 341 336 335 338 338 339 337 336 334 333 328 329 335 335 335 334 333 333 333 333 333 333 332 330 328 326 325 324 323 322 321 319 316
348 347 348 347 347 346 345 343 341 338 337 336 333 331 330 331 332 333 332 333 329 331 336 335 335 333 333 332 333 332 332 331 330 328 327 325 325 324 323 321 320 315 312
341 341 342 342 342 341 340 339 338 340 341 335 336 334 327 329 329 327 329 330 329 331 333 334 335 333 332 331 331 330 330 329 328 326 325 325 324 322 321 319 316 312 309
341 340 340 342 342 342 342 341 340 338 337 334 333 331 328 331 331 328 329 333 332 334 335 334 332 330 329 330 330 330 328 327 326 326 325 324 323 320 317 315 311 310 310
341 340 338 338 338 338 337 336 334 333 332 331 331 325 328 333 332 331 332 334 332 332 333 332 331 331 330 330 330 328 326 325 325 324 323 321 319 318 315 311 310 310 309
339 340 339 338 337 336 337 337 336 335 333 331 329 329 330 330 331 331 332 332 332 333 333 333 333 331 330 328 326 325 324 323 322 321 319 318 316 314 311 310 310 309 308
336 337 336 336 336 335 335 335 335 333 331 329 330 332 335 335 335 334 333 332 331 330 329 328 327 326 324 322 321 320 319 319 318 318 316 314 313 310 310 310 309 308 307
332 333 333 334 333 333 334 333 333 332 334 334 334 333 331 331 330 329 328 327 326 326 324 323 323 322 320 319 318 317 315 314 314 313 313 312 311 310 309 309 309 308 306
324 324 321 321 321 324 326 328 329 329 329 328 327 328 329 328 328 328 326 324 323 323 323 322 322 321 320 318 317 316 312 309 309 308 311 310 310 309 308 308 307 306 306
Wind_Speed
39 39 37 37 37 36 36 34 33 29 28 28 25 24 24 22 22 22 21 19 20 19 18 18 18 16 16 14 13 13 12 11 10 7 7 7 9 9 8 7 8 9 11
39 38 41 39 37 37 37 37 34 33 31 30 29 27 26 25 24 24 24 24 23 23 21 20 21 20 20 16 16 16 14 13 13 10 9 10 11 11 11 9 9 10 10
38 39 37 39 38 39 38 38 38 37 35 34 33 32 30 29 28 27 27 27 27 25 24 24 24 23 21 20 20 17 16 15 15 14 12 11 10 10 11 11 11 11 11
38 39 39 40 42 40 40 39 39 38 36 36 35 35 34 33 32 32 31 30 30 28 27 28 27 26 24 22 21 20 17 17 16 15 15 13 12 11 11 12 13 13 11
34 36 38 41 38 36 37 37 37 37 38 38 37 36 36 35 36 36 35 33 32 31 31 31 29 27 28 26 24 23 21 20 19 18 18 16 16 14 14 13 13 12 11
33 38 37 35 35 37 37 38 37 38 38 37 37 38 40 40 41 42 40 36 35 35 32 31 30 31 32 31 32 25 25 23 21 20 19 17 14 14 13 12 13 12 13
35 34 34 34 34 35 33 32 34 35 35 38 39 39 40 42 44 46 48 41 37 34 33 32 30 29 31 29 35 33 31 30 26 20 20 16 15 16 15 11 12 11 14
33 34 33 33 34 31 33 37 37 36 37 37 36 36 35 38 43 47 49 47 37 35 35 34 34 32 33 33 28 30 33 33 33 26 22 19 19 14 14 14 11 13 12
32 34 35 34 31 32 36 37 28 28 29 29 28 28 31 33 36 43 47 40 39 37 38 40 41 39 37 38 34 31 30 30 25 29 26 22 21 17 16 13 13 13 10
34 36 30 31 31 33 30 27 26 27 27 26 27 26 26 28 28 29 39 37 36 38 42 40 40 40 39 40 38 31 27 28 23 20 25 27 25 21 20 17 13 12 12
25 26 27 29 27 26 25 26 26 27 26 30 31 33 30 28 28 31 33 45 45 37 36 34 37 42 40 42 42 33 30 24 26 22 17 18 17 18 15 18 15 11 10
22 23 23 23 25 25 26 26 27 27 30 31 32 35 30 36 41 38 34 43 46 42 37 34 34 43 46 39 38 30 26 24 24 24 17 19 19 18 17 17 13 11 7
20 20 21 22 24 23 26 25 26 28 28 30 31 29 25 26 34 36 40 62 41 50 41 33 33 33 33 35 35 25 24 26 24 25 23 21 21 18 16 15 12 10 8
19 19 20 22 23 23 23 23 24 25 25 24 26 28 29 26 24 22 28 36 41 49 38 25 25 26 29 36 31 31 29 31 24 22 23 23 20 18 18 16 14 12 12
19 19 19 20 22 20 16 14 21 23 20 24 26 25 24 24 22 28 33 38 45 41 32 29 25 30 38 34 39 42 40 34 28 24 24 23 21 19 19 17 15 12 12
15 16 16 14 16 15 13 6 5 10 18 21 20 17 16 20 20 25 33 41 44 42 34 27 26 24 19 25 28 28 31 36 29 27 23 22 21 21 19 17 14 13 12
9 10 11 10 11 11 11 8 6 6 4 1 4 7 14 22 22 26 30 34 37 37 19 13 15 14 17 22 29 31 27 30 27 25 24 23 23 21 20 16 14 12 11
13 12 10 9 9 9 9 9 10 10 9 5 2 3 5 8 7 17 28 33 26 14 3 6 9 13 18 22 26 26 24 25 24 23 23 24 22 20 18 16 13 12 10
12 10 10 11 10 11 9 9 8 7 7 8 6 4 7 14 17 20 24 10 9 11 8 11 14 18 17 19 24 24 24 25 24 25 23 22 21 19 17 14 12 8 8
13 13 12 11 14 11 10 10 7 3 2 7 8 9 10 11 7 11 10 11 16 17 14 14 13 19 21 22 22 21 21 23 23 21 21 20 19 17 15 14 12 11 11
10 9 8 8 7 6 4 1 2 2 3 5 6 8 14 13 11 11 13 11 10 12 12 15 18 24 23 20 20 21 20 20 20 20 19 18 17 16 14 12 13 12 10
13 11 11 11 11 11 9 10 10 7 4 8 7 7 11 7 9 9 10 10 9 10 14 18 22 21 20 20 19 19 17 17 18 19 18 17 16 14 14 14 13 12 12
14 15 15 15 14 11 10 9 8 10 6 8 9 9 7 7 9 11 10 10 11 13 17 16 17 18 18 18 18 18 18 18 18 18 17 16 16 15 15 15 14 14 14
16 16 17 16 14 13 13 13 12 11 8 7 7 9 11 11 11 12 14 15 15 16 17 17 17 18 17 17 16 15 13 13 14 15 15 16 16 15 15 15 15 15 13
22 19 18 17 19 18 15 13 11 10 11 11 8 7 8 6 10 11 13 15 16 16 16 16 18 20 20 17 14 12 13 14 11 12 15 15 15 15 16 16 15 14 14
23 23 21 20 20 18 16 15 14 12 10 10 9 9 8 6 6 7 10 11 12 12 13 14 17 19 18 16 15 14 11 11 12 15 13 14 15 16 18 15 14 14 14
Wind_Direction
206 208 210 212 214 216 218 217 217 218 214 214 213 214 215 214 212 211 214 217 217 218 217 215 216 216 220 221 219 222 223 225 238 230 236 205 215 228 237 236 240 253 264
208 206 207 209 211 213 214 215 215 216 215 212 211 212 213 215 214 213 215 218 218 217 217 216 219 217 217 222 221 222 222 223 237 233 239 226 222 224 231 240 255 260 262
209 209 210 211 210 211 212 212 213 212 213 212 210 209 210 212 214 216 219 220 221 220 218 219 221 218 216 217 218 220 223 224 228 243 240 229 237 229 230 234 236 247 253
210 211 211 210 211 210 211 212 212 212 210 210 209 209 209 210 215 218 220 221 223 223 221 221 222 219 218 215 214 219 219 220 222 229 240 240 227 231 232 248 236 239 252
208 212 212 214 214 211 211 212 213 211 212 212 210 210 212 213 216 216 217 220 222 222 222 222 223 221 221 215 213 215 214 216 226 222 234 237 233 222 225 239 245 273 268
209 210 213 212 211 211 212 213 212 212 211 212 213 211 210 213 220 219 216 219 222 221 219 221 222 223 223 222 219 215 216 212 222 231 234 238 239 235 244 251 261 276 279
212 211 211 211 210 211 213 215 217 215 214 214 214 214 216 217 219 219 221 218 220 220 218 218 219 224 223 222 226 226 224 225 224 226 240 249 247 236 243 229 249 258 267
207 209 210 209 211 208 208 212 215 213 215 218 219 219 221 223 223 221 222 221 224 224 221 219 216 217 215 213 215 220 224 223 226 224 231 237 243 245 233 234 243 251 259
208 210 209 207 206 206 211 214 215 216 220 225 228 230 231 235 236 231 226 221 228 230 226 223 218 217 216 214 206 209 215 219 225 229 220 231 240 232 221 228 232 241 253
209 211 207 207 207 209 212 211 212 214 217 217 221 227 235 241 244 251 239 233 235 234 235 233 226 221 219 216 211 202 201 207 202 212 217 221 229 227 229 227 233 239 240
212 210 209 210 209 210 208 207 205 205 209 208 207 207 209 226 226 234 241 234 236 239 236 231 227 228 222 217 215 203 203 190 192 193 199 211 213 213 214 222 221 232 243
211 209 207 205 205 204 204 202 202 203 205 207 208 213 201 213 217 222 238 243 234 239 247 233 226 218 212 219 214 206 190 184 188 180 182 204 207 206 210 208 207 203 211
197 199 198 198 200 200 194 200 202 207 214 214 216 226 218 221 204 216 222 236 245 234 242 247 227 215 214 199 212 182 188 186 183 170 185 206 207 208 196 186 188 192 197
187 192 191 191 191 192 192 200 207 208 213 221 223 237 241 236 228 224 228 233 230 234 239 238 208 198 192 178 193 196 188 185 185 192 188 204 200 190 187 191 193 199 218
178 181 182 186 185 185 191 202 214 217 223 225 234 244 245 245 239 221 219 224 222 218 201 181 162 168 167 173 172 184 186 184 182 190 197 197 185 188 193 196 205 204 222
173 174 177 170 172 179 182 162 216 225 237 245 256 266 269 264 259 246 231 228 225 202 181 168 175 182 188 185 177 174 170 174 186 188 182 181 183 192 193 197 205 212 223
141 139 145 146 159 164 168 172 136 77 104 198 260 262 269 271 269 263 219 201 182 169 169 182 197 222 213 175 166 163 172 175 177 175 175 179 187 192 193 195 206 217 225
100 105 121 129 140 142 148 157 155 142 134 118 156 242 235 210 206 182 170 162 160 174 233 216 214 182 172 164 165 162 167 169 171 171 179 183 188 192 194 208 206 215 223
82 78 99 111 123 130 135 139 138 145 141 136 151 179 215 187 174 169 162 166 188 201 213 183 173 162 159 165 163 163 161 166 177 179 178 185 190 196 200 208 206 213 213
84 90 98 117 121 126 138 143 159 199 231 169 194 181 173 170 182 184 190 199 193 191 210 181 166 158 166 162 155 157 164 175 175 175 181 189 194 201 204 202 204 195 207
98 104 110 119 126 140 155 125 30 30 224 185 159 175 180 188 187 195 191 185 182 154 147 161 158 157 157 159 163 172 167 169 175 184 185 189 194 199 205 197 200 198 208
92 86 87 89 94 90 95 94 94 103 123 123 130 143 167 182 170 184 190 190 177 188 171 167 162 159 161 164 168 165 170 177 186 188 188 190 192 199 196 198 199 199 206
82 91 84 79 83 94 75 70 82 99 104 109 117 133 149 169 175 172 175 171 178 181 177 174 170 163 163 163 165 169 176 181 185 188 189 194 195 196 193 197 198 205 212
62 71 80 74 71 78 84 92 96 109 110 119 141 180 157 159 154 149 150 150 154 154 156 160 160 155 154 155 157 164 175 182 186 193 195 195 195 189 194 199 205 214 209
56 51 57 62 60 43 50 66 75 79 106 128 126 107 106 117 141 147 145 150 154 157 159 162 160 157 155 160 158 157 165 176 165 183 193 197 198 192 200 200 208 207 214
59 59 58 59 56 56 57 51 52 53 64 79 80 75 75 96 110 139 153 153 155 160 163 169 167 165 164 164 163 170 169 172 182 187 194 199 198 196 201 204 204 214 210